Location: Althorst
(53.6379°N, 10.7715°E)
Time: 21:14:11
(UTC+00:00)

Cosmos 2237 Rocket - Pass Details

Date: 10 December 2019
Orbit: 836 x 849 km, 71.0° (Epoch: 18 January)

Event Time Altitude Azimuth Distance (km) Brightness Sun altitude
Rises 19:18:36 0° 260° (W) 3,412 6.2 -37.2°
Reaches altitude 10° 19:21:32 10° 274° (W) 2,478 5.3 -37.6°
Enters shadow 19:25:36 24° 320° (NW) 1,704 4.1 -38.2°
